Location: Santa Clara
(37.3540°N, 121.9540°W)
Time: 22:27:02
(UTC-08:00)

ISS - Pass Details

Date: 24 January 2026
Orbit: 414 x 429 km, 51.6° (Epoch: 8 February)

Event Time Altitude Azimuth Distance (km) Brightness Sun altitude
Rises 18:14:58 0° 322° (NW) 2,365 0.4 -10.4°
Reaches altitude 10° 18:18:43 10° 4° (N) 1,504 -1.1 -11.1°
Maximum altitude 18:19:25 11° 16° (NNE) 1,476 -1.3 -11.3°
Drops below altitude 10° 18:20:07 10° 28° (NNE) 1,506 -1.3 -11.4°
Enters shadow 18:20:11 10° 30° (NNE) 1,512 -1.3 -11.4°
